Regional Weather Roundup
Issued by NWS State College, PA

Home | Current Version | Previous Version | Graphics & Text | Print | Product List | Glossary Off
Versions: 1 2 3 4 5 6 7 8 9 10 11 12 13 14 15 16 17 18 19 20 21 22 23 24 25 26 27 28 29 30 31 32 33 34 35 36 37 38 39 40 41 42 43 44 45 46 47 48 49 50

000
ASUS41 KCTP 221410
RWRCTP

REGIONAL WEATHER ROUNDUP
NATIONAL WEATHER SERVICE STATE COLLEGE PA
1000 AM EDT TUE JUL 22 2014

Note: "fair" indicates few or no clouds below 12,000 feet with no
significant weather and/or obstructions to visibility.

* = STATION THAT DOES NOT REPORT PRECIPITATION /E.G. RAIN...SNOW...ETC/
    THUNDER OR FOG.

PAZ002>004-007>009-013>016-020>023-029>032-221500-
WESTERN PENNSYLVANIA

CITY           SKY/WX    TMP DP  RH WIND       PRES   REMARKS
ERIE           SUNNY     80  68  66 CALM      30.12F
MEADVILLE      SUNNY     76  68  76 SW3       30.17S
FRANKLIN*      SUNNY     73  66  78 S6        30.19S
NEW CASTLE       N/A     78  71  79 CALM      30.16F
BEAVER COUNTY  SUNNY     77  70  78 CALM      30.17S
BUTLER*        SUNNY     75  70  83 S5        30.18F
PITTSBURGH INT MOSUNNY   78  69  73 VRB3      30.16F
PITTSBURGH     SUNNY     77  68  73 S6        30.16F
INDIANA*       MOSUNNY   77  68  73 SW6       30.21F
LATROBE        SUNNY     79  70  73 SW9       30.18F
WASHINGTON CO* SUNNY     79  70  73 SW3       30.17F
$$

PAZ004>006-010>012-017>019-024>028-033>037-041-042-045-046-049>053-221500-
CENTRAL PENNSYLVANIA

CITY           SKY/WX    TMP DP  RH WIND       PRES   REMARKS
BRADFORD       PTSUNNY   72  67  84 SW3       30.20F
DUBOIS         MOSUNNY   77  69  76 VRB3      30.19F
CLEARFIELD     MOSUNNY   72  68  87 CALM      30.19F
JOHNSTOWN      SUNNY     72  65  78 SW5       30.22F
ALTOONA        MOSUNNY   75  69  81 S6        30.20F
STATE COLLEGE  CLOUDY    73  68  83 SW6       30.19F
WILLIAMSPORT   CLOUDY    74  66  76 CALM      30.16F
SELINSGROVE    CLOUDY    75  68  78 S5        30.18F
FT INDIANTOWN  CLOUDY    73  73  98 VRB2      30.19F
CAPITAL CITY   CLOUDY    76  69  79 SW6       30.18F
HARRISBURG     CLOUDY    77  70  79 VRB3      30.17F
YORK           MOSUNNY   78  70  76 MISG      30.18F
$$

PAZ038>040-043-044-047-048-054-055-060>062-067>071-221500-
EASTERN PENNSYLVANIA

CITY           SKY/WX    TMP DP  RH WIND       PRES   REMARKS
SCRANTON       SUNNY     77  65  66 SW6       30.18F
MOUNT POCONO   MOSUNNY   74  64  71 SW9       30.23S
ALLENTOWN      SUNNY     77  67  71 W5        30.18F
QUAKERTOWN*    MOSUNNY   75  68  78 S6        30.20F
READING        MOSUNNY   78  68  71 W6        30.18S
LANCASTER      CLOUDY    76  68  76 CALM      30.18F
COATESVILLE    PTSUNNY   73  72  94 SW3       30.21F
POTTSTOWN      PTSUNNY   76  68  76 VRB3      30.20F
BLUE BELL      MOSUNNY   81  70  69 W5        30.18F
DOYLESTOWN     SUNNY     77  67  71 SW7       30.18F
WILLOW GROVE   NOT AVBL
NORTH PHILA    SUNNY     81  66  60 W7        30.19F
PHILADELPHIA   MOSUNNY   78  67  68 W7        30.19F
$$



USA.gov is the U.S. government's official web portal to all federal, state and local government web resources and services.